DELTA 1 DEB

Satellite information

Favourite Embed

Satellite Type and Status

DEBRISIN ORBIT

Key statistics

Satellite DELTA 1 DEB at a glance.

Uptime

18589

Days in orbit

Revolutions

≈ 14.5

Per day

Orbit

SSO

Sun Synchronous Orbit

Inclination

98.0

Latest

Satellite identification and parameters

Extended collection of information and parameters for DELTA 1 DEB.

Object identification

Identified? True

Debris? True

Object name: DELTA 1 DEB

International designator: 1975-004DE

Object number (NORAD): 9040

Object ID (CCSDS): 9040

Country: UNITED STATES OF AMERICA (US)

Current information (Y/N): Y

RCS size: SMALL

Orbital parameters

Period: 99.395 minutes

Inclination: 97.9603 deg

SMA: 7107.845 km

Apoapsis: 762.417 km

Periapsis: 697.003 km

RAAN: 61.2411 deg

Eccentricy: 0.00460156

Argument of periapsis: 187.7382 deg

Mean anomaly: 172.3108 deg

Mean motion: 14.48757872 rev/day

Mean motion (dot): 0.00000431 rev/day2

B* drag term: 0.00012367186 1/REarth

Two-line elements (TLE)

Creation date: Dec. 14, 2025, 3:07 a.m.

Reference frame: TEME

Reference center: EARTH

Epoch: Dec. 13, 2025, 11:46 a.m. UTC

TLE line 0: 0 DELTA 1 DEB

TLE line 1: 1 09040U 75004DE 25347.49048083 .00000431 00000-0 12367-3 0 9996

TLE line 2: 2 09040 97.9603 61.2411 0046016 187.7382 172.3108 14.48757872586472

Live tracking on map

Real-time ground track for satellite DELTA 1 DEB.

In-orbit conjunctions

A list of the most updated potential collisions computed for object DELTA 1 DEB.

Target Orbit TCA Probability of collision Miss distance Type
CZ-4B R/B SSO 2024-12-13 21:49:29 0.0004283221 346.0 (m) ROCKET BODY
COSMOS 2251 DEB LEO 2024-06-25 07:31:00 0.0001896479 126.0 (m) DEBRIS

Associated space launch

Earth observation satellite

DELTA 1 DEB was lifted into orbit during the mission ‘Delta 2910 | Landsat 2’, on board a Delta 2910 space rocket.

The launch took place on Jan. 22, 1975, 5:55 p.m. from Space Launch Complex 2W.

For more information about the launch, click the button.

Launch to space Delta 2910 | Landsat 2
Delta 2910 | Landsat 2

Agency: N/A

Status: Launch Successful

Launch date: Jan. 22, 1975, 5:55 p.m. UTC

Rocket: Delta 2910

Launch pad: Space Launch Complex 2W

Location: Vandenberg SFB, CA, USA

...

Latest news about this satellite

There are no fresh news available about this satellite. Check back as we update our databases every day.


Newsletter sign-up

Weekly statistics, charts and insights to help you stay on top of the space industry.